User: anonymous   Login
Location: Caltech
(34.1382°N, 118.1253°W)
Time: 23:00:35
(UTC-08:00)
Language:

OAO 2 Rocket - Orbit

View from above orbital plane
View from above orbital plane
View from above satellite
View from above satellite

Ground track
Ground track

The orbit data is extracted from the following two-line orbital elements,

1 03598U 68110B   15061.48248004  .00000707  00000-0  16744-3 0  9993
2 03598 034.9952 026.6406 0050286 273.8341 085.6604 14.53936124444461
Epoch (UTC): 02 March 2015 11:34:46
Eccentricity: 0.0050286
inclination: 34.9952°
perigee height: 677 km
apogee height: 748 km
right ascension of ascending node: 26.6406°
argument of perigee: 273.8341°
revolutions per day: 14.53936124
mean anomaly at epoch: 85.6604°
orbit number at epoch: 44446

The dashed part of the orbit path shows where the satellite is in the earth's shadow,  

DLR